FW9470 Weather Reports


time (UTC)temp
C
wind
direction
speed
KPH
gust
KPH
rain 1hr
cm
rain 24hr
cm
rain mn
cm
humidity
%
barometer
mb
20260509000040 16 0 0.0 0.0 0.00 0.00 0.00 80 1013.4
20260508234531 16 0 0.0 0.0 0.00 0.00 0.00 79 1013.2
20260508233030 17 0 0.0 0.0 0.00 0.00 0.00 80 1013.2
20260508231531 17 0 0.0 3.2 0.00 0.00 0.00 76 1013.4
20260508230030 18 0 0.0 8.0 0.00 0.00 0.00 71 1013.2
20260508224554 19 159 1.6 11.3 0.00 0.00 0.00 65 1013.3
20260508223030 19 150 3.2 9.7 0.00 0.00 0.00 65 1013.5
20260508221534 19 170 1.6 6.4 0.00 0.00 0.00 67 1013.2
20260508220035 20 207 1.6 6.4 0.00 0.00 0.00 60 1013.3
20260508214538 20 266 1.6 6.4 0.00 0.00 0.00 60 1013.3
20260508213037 20 219 1.6 8.0 0.00 0.00 0.00 58 1013.0
20260508211532 20 207 1.6 11.3 0.00 0.00 0.00 59 1013.4
20260508210033 20 269 3.2 9.7 0.00 0.00 0.00 57 1013.2
20260508204535 20 240 4.8 12.9 0.00 0.00 0.00 56 1013.4
20260508203035 21 254 6.4 16.1 0.00 0.00 0.00 54 1013.5
20260508201538 21 229 3.2 12.9 0.00 0.00 0.00 55 1013.6
20260508200042 21 360 3.2 14.5 0.00 0.00 0.00 54 1013.7
20260508194530 21 360 3.2 9.7 0.00 0.00 0.00 58 1013.9
20260508193037 21 360 3.2 9.7 0.00 0.00 0.00 55 1014.3
20260508191533 21 360 3.2 9.7 0.00 0.00 0.00 54 1014.4
20260508190033 21 360 9.7 17.7 0.00 0.00 0.00 54 1014.4
20260508184530 21 360 4.8 14.5 0.00 0.00 0.00 55 1014.5
20260508183034 20 287 3.2 11.3 0.00 0.00 0.00 55 1015.0
20260508181540 21 360 4.8 11.3 0.00 0.00 0.00 55 1015.1
20260508180033 20 146 3.2 8.0 0.00 0.00 0.00 57 1015.3
20260508174531 20 147 3.2 14.5 0.00 0.00 0.00 56 1015.6
20260508173031 20 213 4.8 16.1 0.00 0.00 0.00 57 1015.7
20260508171536 18 171 4.8 14.5 0.00 0.00 0.00 61 1015.9
20260508170030 19 165 3.2 14.5 0.00 0.00 0.00 59 1016.0
20260508164533 19 236 6.4 16.1 0.00 0.00 0.00 60 1016.4
20260508163031 19 177 4.8 19.3 0.00 0.00 0.00 60 1016.5
20260508161537 18 206 4.8 14.5 0.00 0.00 0.00 61 1016.7
20260508160036 17 167 1.6 14.5 0.00 0.00 0.00 64 1016.7
20260508154530 18 26 3.2 17.7 0.00 0.00 0.00 59 1017.1
20260508153030 18 185 3.2 12.9 0.00 0.00 0.00 58 1017.2
20260508151529 17 98 3.2 12.9 0.00 0.00 0.00 63 1017.3
20260508150039 18 184 3.2 11.3 0.00 0.00 0.00 60 1017.2
20260508144542 17 0 1.6 14.5 0.00 0.00 0.00 62 1016.9
20260508143038 17 163 1.6 11.3 0.00 0.00 0.00 66 1016.7
20260508141530 17 165 3.2 9.7 0.00 0.00 0.00 66 1017.2
20260508140039 16 343 1.6 9.7 0.00 0.00 0.00 68 1017.5
20260508134532 16 320 1.6 6.4 0.00 0.00 0.00 72 1017.5
20260508133030 15 0 0.0 3.2 0.00 0.00 0.00 79 1017.6
20260508131534 15 0 0.0 4.8 0.00 0.00 0.00 84 1017.5
20260508130030 13 352 0.0 1.6 0.00 0.00 0.00 89 1017.4
20260508124530 12 0 0.0 1.6 0.00 0.00 0.00 94 1017.0
20260508123033 11 0 0.0 0.0 0.00 0.00 0.00 96 1016.8
20260508121533 11 0 0.0 0.0 0.00 0.00 0.00 97 1016.7
20260508120032 10 0 0.0 0.0 0.00 0.00 0.00 97 1016.5
20260508114536 9 0 0.0 0.0 0.00 0.00 0.00 97 1016.3
20260508113045 8 0 0.0 0.0 0.00 0.00 0.00 97 1016.2
20260508111532 8 0 0.0 1.6 0.00 0.00 0.00 97 1015.6
20260508110034 8 0 0.0 1.6 0.00 0.00 0.00 96 1015.4
20260508104548 8 0 0.0 0.0 0.00 0.00 0.00 96 1015.0
20260508103030 8 0 0.0 0.0 0.00 0.00 0.00 96 1015.0
20260508101537 8 0 0.0 0.0 0.00 0.00 0.00 96 1014.8
20260508100036 8 0 0.0 0.0 0.00 0.00 0.00 96 1014.5
20260508094533 8 0 0.0 0.0 0.00 0.00 0.00 96 1014.3
20260508093033 8 0 0.0 0.0 0.00 0.00 0.00 96 1014.4
20260508091533 8 0 0.0 0.0 0.00 0.00 0.00 96 1014.2
20260508090043 8 0 0.0 0.0 0.00 0.00 0.00 96 1014.1
20260508084531 8 0 0.0 0.0 0.00 0.00 0.00 96 1013.8
20260508083038 8 0 0.0 0.0 0.00 0.00 0.00 96 1013.8
20260508081530 8 0 0.0 0.0 0.00 0.00 0.00 96 1013.8
20260508080030 8 0 0.0 0.0 0.00 0.00 0.00 96 1013.7
20260508074529 9 0 0.0 0.0 0.00 0.00 0.00 95 1013.9
20260508073030 9 0 0.0 0.0 0.00 0.00 0.00 96 1014.0
20260508071531 9 0 0.0 0.0 0.00 0.00 0.00 95 1013.9
20260508070030 9 0 0.0 0.0 0.00 0.00 0.00 95 1013.8
20260508064551 10 0 0.0 0.0 0.00 0.00 0.00 95 1013.4
20260508063030 10 0 0.0 0.0 0.00 0.00 0.00 95 1013.4
20260508061532 10 0 0.0 0.0 0.00 0.00 0.00 95 1013.4
20260508060035 10 0 0.0 0.0 0.00 0.00 0.00 95 1013.6
20260508054553 10 0 0.0 0.0 0.00 0.00 0.00 94 1013.6
20260508053031 11 0 0.0 0.0 0.00 0.00 0.00 94 1013.5
20260508051533 11 0 0.0 0.0 0.00 0.00 0.00 94 1013.7
20260508050037 11 0 0.0 1.6 0.00 0.00 0.00 93 1013.6
20260508044530 11 0 0.0 0.0 0.00 0.00 0.00 92 1013.6
20260508043040 11 0 0.0 0.0 0.00 0.00 0.00 91 1013.6
20260508041534 12 0 0.0 0.0 0.00 0.00 0.00 90 1013.4
20260508040040 12 333 0.0 1.6 0.00 0.00 0.00 89 1013.3
20260508034534 12 0 0.0 0.0 0.00 0.00 0.00 88 1013.3
20260508033033 13 0 0.0 0.0 0.00 0.00 0.00 86 1013.3
20260508031531 13 333 0.0 3.2 0.00 0.00 0.00 84 1013.4
20260508030034 14 0 0.0 3.2 0.00 0.00 0.00 83 1012.9
20260508024530 15 0 0.0 0.0 0.00 0.00 0.00 84 1012.9
20260508023032 15 0 0.0 1.6 0.00 0.00 0.00 82 1012.5
20260508021532 15 0 0.0 3.2 0.00 0.00 0.00 79 1012.4
20260508020030 16 333 0.0 3.2 0.00 0.00 0.00 78 1012.1
20260508014532 17 0 0.0 6.4 0.00 0.00 0.00 75 1011.9
20260508013031 17 0 1.6 9.7 0.00 0.00 0.00 72 1011.3
20260508011543 18 286 1.6 11.3 0.00 0.00 0.00 71 1011.0
20260508010037 18 262 4.8 16.1 0.00 0.00 0.00 69 1010.6
20260508004537 18 309 4.8 19.3 0.00 0.00 0.00 68 1010.7
20260508003032 19 265 4.8 16.1 0.00 0.00 0.00 65 1010.4
20260508001533 20 351 3.2 17.7 0.00 0.00 0.00 65 1009.8